Weather History for Traverse City, MI

Change the Weather History Date:

Monday, December 3, 2012

  Actual Average Record
Temperature  
Mean Temperature 53 °F 31 °F  
Max Temperature 64 °F 36 °F 64 °F (1962)
Min Temperature 41 °F 25 °F 0 °F (1976)
Degree Days  
Heating Degree Days 12 34  
Month to date heating degree days 54 102  
Since 1 July heating degree days 1536 1721  
Growing Degree Days 2 (Base 50)    
Moisture  
Dew Point 49 °F    
Average Humidity 83    
Maximum Humidity 89    
Minimum Humidity 76    
Precipitation  
Precipitation 0.47 in 0.08 in 1.22 in (1970)
Month to date precipitation 0.68 0.25  
Year to date precipitation 28.53 30.81  
Sea Level Pressure  
Sea Level Pressure 29.86 in    
Wind  
Wind Speed 6 mph (South)    
Max Wind Speed 18 mph    
Max Gust Speed 36 mph    
Visibility 6 miles    
Events Rain    
T = Trace of Precipitation, MM = Missing Value Source: NWS Daily Summary

Daily Weather History Graph

Daily Weather History Graph

Search for Another Location

Airport:

Trip Planner

Search our weather history database for the weather conditions in past years. The results will help you decide how hot, cold, wet, or windy it might be!

Date:

Astronomy

Dec. 03, 2012 Rise Set
Actual Time 8:02 AM EST 5:02 PM EST
Civil Twilight 7:29 AM EST 5:35 PM EST
Nautical Twilight 6:52 AM EST 6:12 PM EST
Astronomical Twilight 6:17 AM EST 6:47 PM EST
Moon 9:55 PM EST (12/3) 11:19 AM EST (12/3)
Length of Visible Light 10h 06m
Length of Day
9h 00m
Waning Gibbous, 78% of the Moon is Illuminated
Dec 3
Waning Gibbous
Dec 6
Last Quarter
Dec 13
New
Dec 20
First Quarter
Dec 28
Full

Hourly Weather History & Observations

Time (EST) Temp. Windchill Dew Point Humidity Pressure Visibility Wind Dir Wind Speed Gust Speed Precip Events Conditions
12:53 AM 41.0 °F - 36.0 °F 82% 30.09 in 10.0 mi Calm Calm - N/A   Overcast
1:53 AM 42.1 °F 40.2 °F 36.0 °F 79% 30.09 in 9.0 mi Variable 3.5 mph - N/A   Overcast
2:53 AM 41.0 °F - 37.0 °F 86% 30.10 in 8.0 mi Calm Calm - N/A   Overcast
3:44 AM 42.8 °F - 37.4 °F 81% 30.06 in 7.0 mi Calm Calm - N/A   Overcast
3:53 AM 42.1 °F - 37.9 °F 85% 30.08 in 7.0 mi Calm Calm - N/A   Overcast
4:53 AM 42.1 °F 39.2 °F 39.0 °F 89% 30.05 in 4.0 mi SSE 4.6 mph - N/A   Overcast
5:53 AM 43.0 °F 41.3 °F 39.9 °F 89% 30.04 in 4.0 mi SSE 3.5 mph - N/A   Overcast
6:53 AM 44.1 °F 42.5 °F 41.0 °F 89% 30.04 in 4.0 mi South 3.5 mph - N/A   Overcast
6:57 AM 44.6 °F 42.2 °F 41.0 °F 87% 30.02 in 4.0 mi Variable 4.6 mph - N/A   Overcast
7:53 AM 45.0 °F 41.2 °F 41.0 °F 86% 30.02 in 4.0 mi SSE 6.9 mph - N/A   Overcast
8:53 AM 46.0 °F 43.9 °F 42.1 °F 86% 30.00 in 4.0 mi Variable 4.6 mph - N/A   Overcast
10:53 AM 50.0 °F - 46.0 °F 86% 29.96 in 3.0 mi South 10.4 mph 19.6 mph N/A   Overcast
11:53 AM 52.0 °F - 48.0 °F 86% 29.92 in 3.0 mi Variable 6.9 mph - N/A   Overcast
12:53 PM 54.0 °F - 48.9 °F 83% 29.88 in 5.0 mi Variable 5.8 mph - N/A   Haze
1:43 PM 55.4 °F - 50.0 °F 82% 29.84 in 6.0 mi South 6.9 mph - N/A   Haze
1:53 PM 55.0 °F - 50.0 °F 83% 29.85 in 6.0 mi SE 8.1 mph - N/A   Haze
2:53 PM 55.0 °F - 51.1 °F 86% 29.82 in 5.0 mi Variable 6.9 mph - N/A   Overcast
3:53 PM 55.9 °F - 52.0 °F 87% 29.78 in 6.0 mi SSE 9.2 mph - N/A   Overcast
4:53 PM 57.0 °F - 53.1 °F 87% 29.76 in 8.0 mi SSE 10.4 mph - N/A   Overcast
5:24 PM 57.2 °F - 53.6 °F 88% 29.74 in 10.0 mi SSE 6.9 mph - N/A   Overcast
5:53 PM 60.1 °F - 55.0 °F 83% 29.74 in 10.0 mi South 8.1 mph 20.7 mph N/A   Overcast
6:53 PM 60.1 °F - 55.9 °F 86% 29.74 in 10.0 mi South 8.1 mph 17.3 mph N/A   Overcast
7:53 PM 63.0 °F - 57.0 °F 81% 29.71 in 10.0 mi South 8.1 mph 17.3 mph N/A   Overcast
8:15 PM 64.4 °F - 57.2 °F 77% 29.69 in 10.0 mi South 10.4 mph 19.6 mph 0.00 in Rain Light Rain
8:45 PM 62.6 °F - 59.0 °F 88% 29.69 in 2.5 mi SW 8.1 mph 19.6 mph 0.18 in Rain Heavy Rain
8:53 PM 63.0 °F - 59.0 °F 87% 29.68 in 3.0 mi SSW 11.5 mph 17.3 mph 0.30 in Rain Light Rain
9:07 PM 62.6 °F - 57.2 °F 82% 29.67 in 4.0 mi SW 11.5 mph 20.7 mph 0.11 in Rain Light Rain
9:53 PM 63.0 °F - 57.9 °F 84% 29.65 in 9.0 mi South 8.1 mph 16.1 mph 0.11 in   Mostly Cloudy
10:15 PM 62.6 °F - 57.2 °F 82% 29.66 in 9.0 mi SSW 9.2 mph - N/A   Overcast
10:53 PM 63.0 °F - 57.9 °F 84% 29.67 in 6.0 mi SSW 11.5 mph 21.9 mph 0.01 in Rain Light Rain
11:35 PM 62.6 °F - 57.2 °F 82% 29.67 in 9.0 mi SSW 9.2 mph 19.6 mph 0.02 in Rain Light Rain
11:53 PM 61.0 °F - 57.0 °F 87% 29.69 in 5.0 mi SW 9.2 mph - 0.05 in Rain Light Rain